Flag for U.S.A. Weather past 2 weeks in Virginia Beach, Virginia, U.S.A.

Now
83 °F

Broken clouds.


Feels Like: 88 °F
Forecast: 75 / 90 °F
Wind: 8 mph from Southwest

Location: Virginia Beach - Oceana

Current Time: Jul 2, 2015 at 6:35:38 PM

Latest Report: Jul 2, 2015 at 5:56 PM


Visibility: 10 mi

Pressure: 29.82 "Hg

Humidity: 70%

Dew point: 72 °F

Location of Virginia BeachLocation

Historic Weather in Virginia Beach — Graph

°F

Virginia Beach temperature yesterday

Maximum temperature yesterday: 90 °F (at 2:56 PM)
Minimum temperature yesterday: 75 °F (at 1:56 AM)
Average temperature yesterday: 81 °F

Past Weeks' High & Low Weather Summary

 TemperatureHumidityPressure
High99 °F (Jun 23, 2:56 PM)88% (Jun 18, 5:56 AM)30.11 "Hg (Jun 18, 5:56 AM)
Low65 °F (Jun 29, 4:56 AM)35% (Jun 19, 11:56 AM)29.69 "Hg (Jun 28, 2:56 AM)
Average82 °F66%29.95 "Hg
* Reported Jun 17 4:56 PM — Jul 2 4:56 PM, Virginia Beach, Weather by CustomWeather, © 2015

Note: Actual official high and low records may vary slightly from our data, if they occured in-between our weather recording intervals... More about our weather records

Advertising

Virginia Beach weather history for previous 24 hours

 ConditionsComfort  
Time TempWeatherWind HumidityBarometerVisibility
4:56 PM
Thu, Jul 2
84 °FPartly sunny.12 mph65%29.83 "Hg10 mi
3:59 PM81 °FThunderstorms. Partly sunny.15 mph60%29.83 "Hg10 mi
3:04 PM90 °FThunderstorms. Broken clouds.15 mph48%29.83 "Hg10 mi
2:56 PM90 °FBroken clouds.15 mph50%29.84 "Hg10 mi
1:56 PM88 °FBroken clouds.16 mph57%29.86 "Hg9 mi
12:56 PM86 °FMore clouds than sun.10 mph63%29.86 "Hg8 mi
11:56 AM87 °FOvercast.12 mph63%29.87 "Hg9 mi
10:56 AM83 °FOvercast.12 mph70%29.89 "Hg8 mi
9:56 AM82 °FOvercast.12 mph72%29.90 "Hg8 mi
8:56 AM80 °FOvercast.9 mph76%29.90 "Hg8 mi
7:56 AM79 °FSunny.12 mph79%29.90 "Hg8 mi
6:56 AM77 °FPartly sunny.9 mph82%29.88 "Hg7 mi
5:56 AM77 °FPassing clouds.9 mph82%29.88 "Hg8 mi
4:56 AM77 °FOvercast.7 mph79%29.88 "Hg9 mi
3:56 AM78 °FMostly cloudy.8 mph76%29.89 "Hg10 mi
2:56 AM79 °FOvercast.7 mph74%29.90 "Hg10 mi
1:56 AM78 °FPassing clouds.7 mph76%29.91 "Hg10 mi
12:56 AM79 °FOvercast.9 mph72%29.92 "Hg10 mi
11:56 PM
Wed, Jul 1
79 °FPassing clouds.7 mph69%29.92 "Hg10 mi
10:56 PM81 °FPassing clouds.7 mph65%29.92 "Hg10 mi
9:56 PM81 °FPassing clouds.3 mph62%29.91 "Hg10 mi
8:56 PM82 °FPassing clouds.3 mph60%29.90 "Hg10 mi
7:56 PM85 °FPassing clouds.8 mph51%29.90 "Hg10 mi
6:56 PM86 °FSunny.12 mph49%29.89 "Hg10 mi
Weather by CustomWeather, © 2015

See weather overviewHow to use our weather pages